Regional Weather Roundup
Issued by NWS Albany, NY

Home | Current Version | Previous Version | Text Only | Print | Product List | Glossary On
Versions: 1 2 3 4 5 6 7 8 9 10 11 12 13 14 15 16 17 18 19 20 21 22 23 24 25 26 27 28 29 30 31 32 33 34 35 36 37 38 39 40 41 42 43 44 45 46 47 48 49 50
192
ASUS41 KALY 102110
RWRALY

NEW YORK STATE HOURLY WEATHER ROUNDUP
NATIONAL WEATHER SERVICE ALBANY NY
400 PM EST WED FEB 10 2016

NOTE: "FAIR" INDICATES FEW OR NO CLOUDS BELOW 12,000 FEET WITH NO
SIGNIFICANT WEATHER AND/OR NO OBSTRUCTIONS TO VISIBILITY.

NYZ032-033-038>043-046>054-057>066-NYZ062>081-102200-
EAST


CITY           SKY/WX    TMP DP  RH WIND       PRES   REMARKS
ALBANY         CLOUDY    34  23  64 W9G20     29.59R WCI  27
GLENS FALLS    CLOUDY    35  21  56 SW8       29.55R WCI  29
POUGHKEEPSIE   CLOUDY    39  19  44 W13       29.60R WCI  31
NEWBURGH       CLOUDY    36  19  51 W14G25    29.61R WCI  27
MONTGOMERY     CLOUDY    37  18  46 W8        29.60R WCI  31
WHITE PLAINS   PTSUNNY   36  18  48 W12G20    29.60R WCI  28
ISLIP          CLOUDY    38  21  50 W15       29.60R WCI  29
NEW YORK CITY  PTSUNNY   39  19  44 W15G22    29.64R WCI  31
CENTRAL PARK   CLOUDY    38  18  44 MISG      29.66R
$$

NYZ005>009-017-018-044>046-055-056-102200-
CENTRAL


CITY           SKY/WX    TMP DP  RH WIND       PRES   REMARKS
FULTON         SNOW      29  26  89 W10       29.63R VSB 1/4 WCI  20
SYRACUSE       NOT AVBL
ROME           HVY SNOW  27  25  92 W8        29.63R VSB 1/4 WCI  19
ELMIRA         CLOUDY    29  19  66 W13G20    29.64R WCI  19
BINGHAMTON     CLOUDY    26  20  77 NW8       29.58R WCI  18
MONTICELLO     PTSUNNY   28  19  69 W12G18    29.58R WCI  18
$$

NYZ026>034-041>043-102200-
NORTH


CITY           SKY/WX    TMP DP  RH WIND       PRES   REMARKS
WATERTOWN      LGT SNOW  25  20  81 W9        29.62R WCI  15
FORT DRUM      NOT AVBL
MASSENA        LGT SNOW  23  17  78 W8        29.61R WCI  14
SARANAC LAKE   SNOW      22  19  89 W8        29.46R VSB 1/2 WCI  12
PLATTSBURGH    SNOW      24  22  91 N10       29.54R VSB 1/2 WCI  14
$$

NYZ001>004-010>016-019>021-102200-
WEST


CITY           SKY/WX    TMP DP  RH WIND       PRES   REMARKS
NIAGARA FALLS  LGT SNOW  24  16  71 W21       29.69R WCI   9
BUFFALO        FLURRIES  24  16  71 W17G23    29.69R WCI  11
DUNKIRK        LGT SNOW  22  15  75 W20G30    29.75R WCI   7
JAMESTOWN      CLOUDY    18  10  73 W20G28    29.67R WCI   1
WELLSVILLE     LGT SNOW  21  14  74 W15       29.61R WCI   8
ROCHESTER      FLURRIES  28  19  69 W18G26    29.66R WCI  15
PENN YAN       FLURRIES  28  16  60 W15G22    29.64R WCI  16
$$

             KEY
       WCI = WIND CHILL INDEX
       VSB = VISIBILITY
       HX  = HEAT INDEX
$$




USA.gov is the U.S. government's official web portal to all federal, state and local government web resources and services.